Вернуться в каталог

SL-16 DEB

LostLEO
NORAD 42246·DEBRIS·🇷🇺 Russia

Запущен Mar 26, 1993 с Baikonur Cosmodrome

Loading…

Ближайшие Пролёты (ближайшие 24 часа)

TLE

УстаревшееSource: Space-Track

Эпоха: May 8, 2024, 14:48 UTC

1 42246U 93016DA  24129.61691937  .00025194  00000-0  70294-2 0  9992
2 42246  70.9456 111.8077 0096516 272.2374  86.7715 14.43454396544729

Отслеживайте SL-16 DEB в реальном времени с AllMySat

Download on the App Store